Home   Weather   Whitby   Past weeks
Flag for Canada

Past Weather in Whitby, Ontario, Canada — Yesterday and Last 2 Weeks

Now
77 °F

Passing clouds.


Feels Like: 79 °F
Forecast: N/A
Wind: 6 mph from Southeast

Location: Oshawa

Current Time: Sep 21, 2019 at 5:39:36 pm

Latest Report: Sep 21, 2019 at 4:01 pm


Visibility: 7 mi

Pressure: 30.13 "Hg

Humidity: 57%

Dew Point: 61 °F

Location of WhitbyLocation

Past Weather in Whitby — Graph

°F

Whitby Temperature Yesterday

Maximum temperature yesterday: 73 °F (at 1:24 pm)
Minimum temperature yesterday: 50 °F (at 5:00 am)
Average temperature yesterday: 65 °F

High & Low Weather Summary for the Past Weeks

 TemperatureHumidityPressure
High79 °F (Sep 11, 1:00 pm)100% (Sep 7, 4:00 am)30.35 "Hg (Sep 7, 4:00 am)
Low45 °F (Sep 9, 4:00 am)41% (Sep 17, 4:00 pm)29.85 "Hg (Sep 7, 4:00 pm)
Average62 °F79%30.15 "Hg
* Reported Sep 6 4:13 pm — Sep 21 4:01 pm, Whitby. Weather by CustomWeather, © 2019

Note: Actual official high and low records may vary slightly from our data, if they occured in-between our weather recording intervals... More about our weather records

Advertising

Whitby Weather History for the Previous 24 Hours

Scroll right to see more
 ConditionsComfort  
Time TempWeatherWind HumidityBarometerVisibility
4:01 pm
Sat, Sep 21
77 °FPassing clouds.6 mph57%30.13 "Hg7 mi
3:16 pm77 °FPartly sunny.7 mph57%30.14 "Hg9 mi
3:03 pm79 °FPartly sunny.6 mph54%30.14 "Hg5 mi
2:59 pm79 °FScattered clouds.7 mph54%30.14 "Hg7 mi
2:34 pm79 °FScattered clouds.7 mph54%30.15 "Hg5 mi
2:16 pm77 °FPartly sunny.6 mph54%30.15 "Hg7 mi
2:03 pm77 °FPartly sunny.6 mph57%30.16 "Hg4 mi
1:42 pm77 °FHaze.6 mph57%30.16 "Hg3 mi
1:26 pm77 °FSunny.6 mph57%30.16 "Hg2 mi
1:17 pm77 °FHaze.8 mph57%30.16 "Hg5 mi
1:00 pm77 °FSunny.6 mph57%30.17 "Hg2 mi
12:43 pm77 °FHaze.7 mph54%30.17 "Hg6 mi
12:29 pm75 °FScattered clouds.6 mph61%30.18 "Hg5 mi
12:00 pm73 °FPartly sunny.5 mph69%30.19 "Hg9 mi
11:00 am73 °FSunny.5 mph69%30.20 "Hg9 mi
10:00 am70 °FPassing clouds.5 mph78%30.20 "Hg9 mi
9:00 am66 °FSunny.6 mph88%30.21 "Hg9 mi
8:00 am59 °FSunny.No wind100%30.20 "Hg9 mi
7:00 am55 °FClear.3 mph100%30.19 "Hg9 mi
6:00 am57 °FClear.2 mph94%30.18 "Hg9 mi
5:00 am57 °FPassing clouds.2 mph94%30.18 "Hg9 mi
4:00 am57 °FPassing clouds.5 mph100%30.17 "Hg9 mi
3:00 am59 °FPassing clouds.2 mph94%30.18 "Hg9 mi
2:00 am61 °FOvercast.3 mph94%30.17 "Hg9 mi
1:00 am63 °FMostly cloudy.3 mph88%30.17 "Hg9 mi
12:00 am61 °FMostly cloudy.6 mph94%30.18 "Hg9 mi
11:00 pm
Fri, Sep 20
59 °FPassing clouds.5 mph94%30.18 "Hg9 mi
10:00 pm63 °FPassing clouds.2 mph88%30.19 "Hg9 mi
9:00 pm64 °FPartly cloudy.No wind83%30.18 "Hg9 mi
8:00 pm66 °FPartly cloudy.3 mph78%30.17 "Hg9 mi
7:00 pm70 °FMostly cloudy.3 mph64%30.17 "Hg9 mi
6:00 pm72 °FOvercast.3 mph61%30.16 "Hg9 mi
5:00 pm73 °FScattered clouds.3 mph53%30.15 "Hg9 mi
Weather by CustomWeather, © 2019

See weather overview